TimeEDT,TemperatureF,Dew PointF,Humidity,Sea Level PressureIn,VisibilityMPH,Wind Direction,Wind SpeedMPH,Gust SpeedMPH,PrecipitationIn,Events,Conditions,WindDirDegrees,DateUTC
12:14 AM,52.7,51.4,95,29.93,1.8,ENE,4.6,-,N/A,,Overcast,70,2013-05-20 04:14:00
12:34 AM,52.3,51.8,98,29.93,0.5,ENE,3.5,-,N/A,Fog,Fog,60,2013-05-20 04:34:00
12:53 AM,52.3,52.0,99,29.93,1.0,NNE,4.6,-,N/A,,Overcast,30,2013-05-20 04:53:00
1:14 AM,52.2,51.8,99,29.93,1.8,ENE,3.5,-,N/A,,Overcast,60,2013-05-20 05:14:00
1:34 AM,52.7,52.0,97,29.93,2.5,Calm,Calm,-,N/A,,Overcast,0,2013-05-20 05:34:00
1:54 AM,52.7,51.8,97,29.92,2.5,East,3.5,-,N/A,,Scattered Clouds,90,2013-05-20 05:54:00
2:14 AM,52.2,51.1,96,29.91,2.5,Calm,Calm,-,N/A,,Clear,0,2013-05-20 06:14:00
2:34 AM,52.2,51.1,96,29.91,2.5,Calm,Calm,-,N/A,,Clear,0,2013-05-20 06:34:00
2:54 AM,52.3,51.4,97,29.90,3.0,Calm,Calm,-,N/A,,Clear,0,2013-05-20 06:54:00
3:14 AM,52.7,51.4,95,29.90,3.0,Calm,Calm,-,N/A,,Clear,0,2013-05-20 07:14:00
3:34 AM,51.6,50.2,95,29.90,3.0,NW,3.5,-,N/A,,Clear,320,2013-05-20 07:34:00
3:54 AM,51.8,50.5,95,29.90,4.0,Calm,Calm,-,N/A,,Clear,0,2013-05-20 07:54:00
4:14 AM,52.2,50.5,94,29.91,4.0,Calm,Calm,-,N/A,,Clear,0,2013-05-20 08:14:00
4:34 AM,52.3,50.7,94,29.90,4.0,ENE,3.5,-,N/A,,Clear,70,2013-05-20 08:34:00
4:54 AM,53.2,51.8,95,29.91,4.0,Calm,Calm,-,N/A,,Clear,0,2013-05-20 08:54:00
5:14 AM,52.5,50.7,94,29.92,4.0,Calm,Calm,-,N/A,,Clear,0,2013-05-20 09:14:00
5:34 AM,52.5,50.9,94,29.92,5.0,Calm,Calm,-,N/A,,Mostly Cloudy,0,2013-05-20 09:34:00
5:54 AM,52.7,50.9,94,29.92,5.0,Calm,Calm,-,N/A,,Overcast,0,2013-05-20 09:54:00
6:14 AM,53.1,51.4,94,29.90,4.0,ENE,3.5,-,N/A,,Scattered Clouds,70,2013-05-20 10:14:00
6:34 AM,54.5,52.2,92,29.90,4.0,Calm,Calm,-,N/A,,Clear,0,2013-05-20 10:34:00
6:54 AM,54.5,52.5,93,29.91,4.0,Calm,Calm,-,N/A,,Clear,0,2013-05-20 10:54:00
7:14 AM,55.4,52.7,91,29.91,4.0,Calm,Calm,-,N/A,,Clear,0,2013-05-20 11:14:00
7:34 AM,57.0,53.4,88,29.90,5.0,Calm,Calm,-,N/A,,Clear,0,2013-05-20 11:34:00
7:54 AM,58.5,54.3,86,29.89,5.0,ENE,3.5,-,N/A,,Haze,70,2013-05-20 11:54:00
8:14 AM,60.4,54.5,81,29.89,7.0,ENE,3.5,-,N/A,,Clear,70,2013-05-20 12:14:00
8:33 AM,60.6,54.5,80,29.88,7.0,East,4.6,-,N/A,,Clear,80,2013-05-20 12:33:00
8:54 AM,59.9,54.9,83,29.89,7.0,ENE,5.8,-,N/A,,Clear,70,2013-05-20 12:54:00
9:14 AM,61.3,56.5,84,29.89,5.0,East,5.8,-,N/A,,Clear,80,2013-05-20 13:14:00
9:34 AM,62.2,55.6,79,29.91,5.0,NNE,5.8,-,N/A,,Haze,30,2013-05-20 13:34:00
9:54 AM,61.5,55.4,80,29.92,4.0,NE,5.8,-,N/A,,Haze,50,2013-05-20 13:54:00
10:14 AM,62.8,55.4,77,29.91,4.0,ENE,5.8,-,N/A,,Haze,70,2013-05-20 14:14:00
10:34 AM,63.5,54.3,72,29.90,5.0,East,8.1,-,N/A,,Haze,90,2013-05-20 14:34:00
10:54 AM,60.3,53.6,79,29.90,4.0,ENE,6.9,-,N/A,,Haze,70,2013-05-20 14:54:00
11:14 AM,60.4,54.1,80,29.90,5.0,NE,8.1,-,N/A,,Haze,50,2013-05-20 15:14:00
11:33 AM,59.9,53.6,80,29.90,5.0,NE,6.9,-,N/A,,Haze,50,2013-05-20 15:33:00
11:54 AM,62.1,54.5,76,29.89,5.0,NE,6.9,-,N/A,,Haze,40,2013-05-20 15:54:00
12:14 PM,64.8,56.1,74,29.88,7.0,ENE,8.1,-,N/A,,Clear,70,2013-05-20 16:14:00
12:33 PM,64.8,56.3,74,29.88,7.0,East,8.1,-,N/A,,Scattered Clouds,80,2013-05-20 16:33:00
12:54 PM,64.9,55.2,71,29.87,7.0,East,9.2,-,N/A,,Scattered Clouds,90,2013-05-20 16:54:00
1:14 PM,64.4,55.0,72,29.86,7.0,East,8.1,-,N/A,,Clear,80,2013-05-20 17:14:00
1:34 PM,63.7,54.1,71,29.85,7.0,East,9.2,-,N/A,,Clear,90,2013-05-20 17:34:00
1:54 PM,63.7,54.7,72,29.84,7.0,East,8.1,-,N/A,,Clear,80,2013-05-20 17:54:00
2:13 PM,63.1,55.0,75,29.83,7.0,ENE,10.4,-,N/A,,Clear,70,2013-05-20 18:13:00
2:34 PM,63.7,55.8,75,29.82,7.0,East,5.8,-,N/A,,Clear,90,2013-05-20 18:34:00
2:54 PM,64.0,55.6,74,29.81,7.0,ENE,6.9,-,N/A,,Scattered Clouds,70,2013-05-20 18:54:00
3:13 PM,65.3,56.5,73,29.80,7.0,ENE,4.6,-,N/A,,Scattered Clouds,70,2013-05-20 19:13:00
3:34 PM,67.3,57.6,71,29.79,10.0,East,4.6,-,N/A,,Clear,80,2013-05-20 19:34:00
3:54 PM,68.5,57.2,67,29.77,10.0,ENE,6.9,-,N/A,,Clear,70,2013-05-20 19:54:00
4:14 PM,66.0,56.5,71,29.75,7.0,East,6.9,-,N/A,,Clear,80,2013-05-20 20:14:00
4:34 PM,65.7,56.5,72,29.74,10.0,East,6.9,-,N/A,,Clear,90,2013-05-20 20:34:00
4:54 PM,66.0,56.8,72,29.75,7.0,East,4.6,-,N/A,,Scattered Clouds,90,2013-05-20 20:54:00
5:14 PM,63.5,55.9,76,29.76,7.0,NE,6.9,-,N/A,,Scattered Clouds,50,2013-05-20 21:14:00
5:34 PM,68.4,58.5,71,29.84,10.0,West,23.0,31.1,N/A,,Mostly Cloudy,280,2013-05-20 21:34:00
5:54 PM,64.4,62.8,94,29.83,3.0,WNW,4.6,16.1,0.46,Rain,Rain,290,2013-05-20 21:54:00
6:14 PM,65.3,63.5,94,29.83,10.0,South,4.6,-,0.01,Rain,Rain,190,2013-05-20 22:14:00
6:34 PM,65.3,63.1,93,29.81,7.0,SE,3.5,-,0.03,Rain,Rain,130,2013-05-20 22:34:00
6:53 PM,64.8,63.1,94,29.79,4.0,Calm,Calm,-,0.06,Rain,Rain,0,2013-05-20 22:53:00
7:14 PM,65.1,63.3,94,29.77,10.0,ESE,3.5,-,0.02,Rain,Light Rain,120,2013-05-20 23:14:00
7:34 PM,64.4,63.0,95,29.76,10.0,Calm,Calm,-,0.02,Rain,Light Rain,0,2013-05-20 23:34:00
7:53 PM,64.6,63.3,96,29.78,10.0,SSW,3.5,-,0.02,,Clear,200,2013-05-20 23:53:00
8:14 PM,64.0,62.8,96,29.79,10.0,Calm,Calm,-,N/A,,Clear,0,2013-05-21 00:14:00
8:34 PM,64.6,63.5,96,29.80,10.0,ESE,5.8,-,N/A,,Clear,120,2013-05-21 00:34:00
8:53 PM,63.0,61.9,96,29.80,7.0,SE,3.5,-,N/A,,Clear,130,2013-05-21 00:53:00
9:14 PM,61.2,60.1,96,29.78,10.0,Calm,Calm,-,N/A,,Clear,0,2013-05-21 01:14:00
9:34 PM,60.3,59.2,96,29.78,10.0,Calm,Calm,-,N/A,,Clear,0,2013-05-21 01:34:00
9:53 PM,59.9,58.6,96,29.81,10.0,ESE,9.2,-,N/A,,Clear,120,2013-05-21 01:53:00
10:14 PM,59.0,58.1,97,29.81,10.0,SSE,5.8,-,N/A,,Clear,150,2013-05-21 02:14:00
10:34 PM,59.0,58.1,97,29.81,7.0,SSE,4.6,-,N/A,,Clear,150,2013-05-21 02:34:00
10:53 PM,59.0,57.7,96,29.81,10.0,SE,3.5,-,N/A,,Clear,130,2013-05-21 02:53:00
11:14 PM,58.6,57.2,95,29.81,10.0,Calm,Calm,-,N/A,,Clear,0,2013-05-21 03:14:00
11:34 PM,57.0,55.8,96,29.80,7.0,Calm,Calm,-,N/A,,Clear,0,2013-05-21 03:34:00
11:53 PM,57.2,56.3,97,29.80,7.0,Calm,Calm,-,N/A,,Clear,0,2013-05-21 03:53:00